Location: Turtle Rock Observatory
(36.6913°N, 81.9708°W)
Time: 00:51:06
(UTC-04:00)

TITAN 4B R/B - Visible Passes

Search period start: 31 October 2014 00:00
Search period end: 09 November 2014 23:00
Orbit: 472 x 656 km, 57.0° (Epoch: 28 October)

Date Brightness Start Highest point End Pass type
(mag) Time Alt. Az. Time Alt. Az. Time Alt. Az.
31 Oct 3.5 05:33:51 19° SSE 05:33:51 19° SSE 05:35:13 10° SSE visible
31 Oct 4.0 21:03:00 10° SW 21:03:22 12° SW 21:03:22 12° SW visible
01 Nov 2.7 19:24:28 10° SSE 19:26:52 17° ESE 19:27:35 16° ESE visible
01 Nov 3.8 21:02:37 10° WSW 21:03:36 17° WSW 21:03:36 17° WSW visible
02 Nov 2.1 18:22:59 10° S 18:26:06 27° ESE 18:27:43 19° E visible
02 Nov 3.8 20:02:26 10° W 20:03:43 17° W 20:03:43 17° W visible
03 Nov 1.4 18:21:53 10° SSW 18:25:23 44° SE 18:27:43 18° ENE visible
03 Nov 4.0 20:02:27 10° W 20:03:43 15° WNW 20:03:43 15° WNW visible
04 Nov 0.9 18:21:02 10° SW 18:24:41 75° SE 18:27:36 15° NE visible
04 Nov 4.1 20:02:49 10° WNW 20:03:36 12° NW 20:03:36 12° NW visible
05 Nov 1.3 18:20:23 10° SW 18:24:01 65° NW 18:27:23 12° NE visible
06 Nov 2.2 18:19:55 10° WSW 18:23:24 40° NW 18:26:52 10° NNE visible
07 Nov 2.8 18:19:39 10° W 18:22:48 27° NW 18:25:58 10° NNE visible
08 Nov 3.3 18:19:36 10° W 18:22:16 19° NW 18:24:56 10° N visible
09 Nov 3.6 18:19:50 10° WNW 18:21:46 14° NW 18:23:41 10° N visible
